START_TIME,STEP,MOV.,M34,t_acc.,L5,t_acc.,L18,t_acc.,L14,t_acc.
1979-08-01 12:00:23.590 ,0,0,0.,12.0,0.,12.0,0.,12.0,0.,12.0
1979-08-01 12:00:35.590 ,0,0,0.,12.0,0.,12.0,0.,12.0,0.,12.0
1979-08-01 12:01:35.590 ,0,0,0.,12.0,0.,12.0,0.,12.0,0.,12.0
1979-08-01 12:01:47.590 ,0,0,0.,12.0,0.,12.0,0.,12.0,0.,12.0
1979-08-01 12:01:59.590 ,0,0,0.,12.0,0.,12.0,0.,12.0,0.,12.0
1979-08-01 12:02:11.590 ,0,0,0.,12.0,0.,12.0,0.,12.0,0.,12.0
1979-08-01 12:02:23.590 ,3,1,0.,12.0,0.,12.0,0.,12.0,0.,12.0
1979-08-01 12:02:35.590 ,3,1,0.,12.0,0.,12.0,0.,12.0,0.,12.0
1979-08-01 12:02:47.590 ,3,0,0.,12.0,0.,12.0,0.,12.0,0.,12.0
1979-08-01 12:02:59.590 ,3,0,0.,12.0,0.,12.0,0.,12.0,0.,12.0
1979-08-01 12:03:11.590 ,4,1,0.,12.0,0.,12.0,0.,12.0,0.,12.0
1979-08-01 12:03:23.590 ,4,1,0.,12.0,0.,12.0,0.,12.0,0.,12.0
1979-08-01 12:03:35.590 ,4,0,1.,12.0,0.,12.0,0.,12.0,0.,12.0
1979-08-01 12:03:47.590 ,4,0,0.,12.0,0.,12.0,0.,12.0,0.,12.0
1979-08-01 12:03:59.590 ,5,1,0.,12.0,0.,12.0,0.,12.0,0.,12.0
1979-08-01 12:04:11.590 ,5,1,0.,12.0,0.,12.0,0.,12.0,0.,12.0
1979-08-01 12:04:23.590 ,5,0,0.,12.0,0.,12.0,0.,12.0,0.,12.0
1979-08-01 12:04:35.590 ,5,0,,0,,0,,0,,0
1979-08-01 12:04:47.590 ,6,1,0.,12.0,0.,12.0,0.,12.0,0.,12.0
1979-08-01 12:04:59.590 ,6,1,0.,12.0,0.,12.0,0.,12.0,0.,12.0
1979-08-01 12:05:11.590 ,6,0,0.,12.0,0.,12.0,0.,12.0,0.,12.0
1979-08-01 12:05:23.590 ,6,0,0.,12.0,0.,12.0,0.,12.0,0.,12.0
1979-08-01 12:05:35.590 ,7,1,0.,12.0,0.,12.0,0.,12.0,0.,12.0
1979-08-01 12:05:47.590 ,7,1,0.,12.0,0.,12.0,0.,12.0,0.,12.0
1979-08-01 12:05:59.590 ,7,0,0.,12.0,0.,12.0,0.,12.0,0.,12.0
1979-08-01 12:06:11.590 ,7,0,0.,12.0,0.,12.0,0.,12.0,0.,12.0
1979-08-01 12:07:11.590 ,0,0,0.,12.0,0.,12.0,0.,12.0,0.,12.0
1979-08-01 12:07:23.590 ,0,0,0.,12.0,0.,12.0,0.,12.0,0.,12.0
1979-08-01 12:07:35.590 ,0,0,0.,12.0,0.,12.0,0.,12.0,0.,12.0
1979-08-01 12:07:47.590 ,0,0,0.,12.0,0.,12.0,0.,12.0,0.,12.0
1979-08-01 12:07:59.590 ,5,1,0.,12.0,0.,12.0,0.,12.0,0.,12.0
1979-08-01 12:08:11.590 ,5,1,0.,12.0,0.,12.0,0.,12.0,0.,12.0
1979-08-01 12:08:23.590 ,5,0,0.,12.0,0.,12.0,0.,12.0,0.,12.0
1979-08-01 12:08:35.590 ,5,0,0.,12.0,0.,12.0,0.,12.0,0.,12.0
1979-08-01 12:08:47.590 ,4,1,0.,12.0,0.,12.0,0.,12.0,0.,12.0
1979-08-01 12:08:59.590 ,4,1,0.,12.0,0.,12.0,0.,12.0,0.,12.0
1979-08-01 12:09:11.590 ,4,0,0.,12.0,0.,12.0,0.,12.0,0.,12.0
1979-08-01 12:09:23.590 ,4,0,0.,12.0,0.,12.0,0.,12.0,0.,12.0
1979-08-01 12:09:35.590 ,3,1,0.,12.0,0.,12.0,0.,12.0,0.,12.0
1979-08-01 12:09:47.590 ,3,1,0.,12.0,0.,12.0,0.,12.0,0.,12.0
1979-08-01 12:09:59.590 ,3,0,0.,12.0,0.,12.0,0.,12.0,0.,12.0
1979-08-01 12:10:11.590 ,3,0,0.,12.0,0.,12.0,0.,12.0,0.,12.0
1979-08-01 12:10:23.590 ,2,1,0.,12.0,0.,12.0,0.,12.0,0.,12.0
1979-08-01 12:10:35.590 ,2,1,0.,12.0,0.,12.0,0.,12.0,0.,12.0
1979-08-01 12:10:47.590 ,2,0,0.,12.0,0.,12.0,0.,12.0,0.,12.0
1979-08-01 12:10:59.590 ,2,0,0.,12.0,0.,12.0,0.,12.0,0.,12.0
1979-08-01 12:11:11.590 ,0,0,0.,12.0,0.,12.0,0.,12.0,0.,12.0
1979-08-01 12:11:23.590 ,0,0,,0,,0,,0,,0
1979-08-01 12:11:35.590 ,0,0,0.,12.0,0.,12.0,0.,12.0,0.,12.0
1979-08-01 12:11:47.590 ,0,0,0.,12.0,0.,12.0,0.,12.0,0.,12.0
1979-08-01 12:11:59.590 ,0,1,0.,12.0,0.,12.0,0.,12.0,0.,12.0
1979-08-01 12:12:11.590 ,0,1,0.,12.0,0.,12.0,0.,12.0,0.,12.0
1979-08-01 12:12:23.590 ,0,0,0.,12.0,0.,12.0,0.,12.0,0.,12.0
1979-08-01 12:12:35.590 ,0,0,0.,12.0,0.,12.0,0.,12.0,0.,12.0
1979-08-01 12:12:47.590 ,0,1,0.,12.0,0.,12.0,0.,12.0,0.,12.0
1979-08-01 12:12:59.590 ,0,1,0.,12.0,0.,12.0,0.,12.0,0.,12.0
1979-08-01 12:13:11.590 ,0,0,0.,12.0,0.,12.0,0.,12.0,0.,12.0
1979-08-01 12:13:23.590 ,0,0,0.,12.0,0.,12.0,0.,12.0,0.,12.0
1979-08-01 12:13:35.590 ,1,1,0.,12.0,0.,12.0,0.,12.0,0.,12.0
1979-08-01 12:13:47.590 ,1,1,0.,12.0,0.,12.0,0.,12.0,0.,12.0
1979-08-01 12:13:59.590 ,1,0,0.,12.0,0.,12.0,0.,12.0,0.,12.0
1979-08-01 12:14:11.590 ,1,0,0.,12.0,0.,12.0,0.,12.0,0.,12.0
1979-08-01 12:14:23.590 ,2,1,0.,12.0,0.,12.0,0.,12.0,0.,12.0
1979-08-01 12:14:35.590 ,2,1,0.,12.0,0.,12.0,0.,12.0,0.,12.0
1979-08-01 12:14:47.590 ,2,0,0.,12.0,0.,12.0,0.,12.0,0.,12.0
1979-08-01 12:14:59.590 ,2,0,0.,12.0,0.,12.0,0.,12.0,0.,12.0
1979-08-01 12:15:11.590 ,3,1,0.,12.0,0.,12.0,0.,12.0,0.,12.0
1979-08-01 12:15:23.590 ,3,1,0.,12.0,0.,12.0,0.,12.0,0.,12.0
1979-08-01 12:15:35.590 ,3,0,0.,12.0,0.,12.0,0.,12.0,0.,12.0
1979-08-01 12:15:47.590 ,3,0,0.,12.0,0.,12.0,0.,12.0,0.,12.0
1979-08-01 12:15:59.590 ,4,1,0.,12.0,0.,12.0,0.,12.0,0.,12.0
1979-08-01 12:16:11.590 ,4,1,0.,12.0,0.,12.0,0.,12.0,0.,12.0
1979-08-01 12:16:23.590 ,4,0,0.,12.0,0.,12.0,0.,12.0,0.,12.0
1979-08-01 12:16:35.590 ,4,0,0.,12.0,0.,12.0,0.,12.0,0.,12.0
1979-08-01 12:16:47.590 ,5,1,0.,12.0,0.,12.0,0.,12.0,0.,12.0
1979-08-01 12:16:59.590 ,5,1,0.,12.0,0.,12.0,0.,12.0,0.,12.0
1979-08-01 12:17:11.590 ,5,0,0.,12.0,0.,12.0,0.,12.0,0.,12.0
1979-08-01 12:17:23.590 ,5,0,0.,12.0,0.,12.0,0.,12.0,0.,12.0
1979-08-01 12:17:35.590 ,6,1,0.,12.0,0.,12.0,0.,12.0,0.,12.0
1979-08-01 12:17:47.590 ,6,1,0.,12.0,0.,12.0,0.,12.0,0.,12.0
1979-08-01 12:17:59.590 ,6,0,0.,12.0,0.,12.0,0.,12.0,0.,12.0
1979-08-01 12:18:11.590 ,6,0,0.,12.0,0.,12.0,0.,12.0,0.,12.0
1979-08-01 12:18:23.590 ,0,0,0.,12.0,0.,12.0,0.,12.0,0.,12.0
1979-08-01 12:18:35.590 ,0,0,0.,12.0,0.,12.0,0.,12.0,1.,12.0
1979-08-01 12:18:47.590 ,0,0,0.,12.0,2.,12.0,1.,12.0,0.,12.0
1979-08-01 12:18:59.590 ,0,0,0.,12.0,0.,12.0,2.,12.0,0.,12.0
1979-08-01 12:19:11.590 ,0,0,0.,12.0,0.,12.0,0.,12.0,0.,12.0
1979-08-01 12:19:23.590 ,0,0,0.,12.0,0.,12.0,0.,12.0,0.,12.0
1979-08-01 12:19:35.590 ,0,1,0.,12.0,0.,12.0,0.,12.0,0.,12.0
1979-08-01 12:19:47.590 ,0,1,0.,12.0,0.,12.0,0.,12.0,0.,12.0
1979-08-01 12:19:59.590 ,3,1,0.,12.0,0.,12.0,0.,12.0,0.,12.0
1979-08-01 12:20:11.590 ,3,1,0.,12.0,0.,12.0,0.,12.0,0.,12.0
1979-08-01 12:20:23.590 ,7,1,0.,12.0,0.,12.0,0.,12.0,0.,12.0
1979-08-01 12:20:35.590 ,7,1,0.,12.0,0.,12.0,0.,12.0,0.,12.0
1979-08-01 12:20:47.590 ,4,1,0.,12.0,0.,12.0,0.,12.0,0.,12.0
1979-08-01 12:20:59.590 ,4,1,0.,12.0,0.,12.0,0.,12.0,0.,12.0
1979-08-01 12:21:11.590 ,0,1,0.,12.0,0.,12.0,0.,12.0,0.,12.0
1979-08-01 12:21:23.590 ,0,1,0.,12.0,0.,12.0,0.,12.0,0.,12.0
1979-08-01 12:21:35.590 ,3,1,0.,12.0,0.,12.0,0.,12.0,0.,12.0
1979-08-01 12:21:47.590 ,3,1,0.,12.0,0.,12.0,0.,12.0,0.,12.0
1979-08-01 12:21:59.590 ,0,0,0.,12.0,0.,12.0,0.,12.0,0.,12.0
1979-08-01 12:22:11.590 ,0,0,0.,12.0,0.,12.0,0.,12.0,0.,12.0
1979-08-01 12:22:23.590 ,4,1,0.,12.0,0.,12.0,0.,12.0,0.,12.0
1979-08-01 12:22:35.590 ,4,1,0.,12.0,0.,12.0,0.,12.0,0.,12.0
1979-08-01 12:22:47.590 ,0,1,0.,12.0,0.,12.0,0.,12.0,0.,12.0
1979-08-01 12:22:59.590 ,0,1,0.,12.0,0.,12.0,0.,12.0,0.,12.0
1979-08-01 12:23:11.590 ,3,1,0.,12.0,0.,12.0,0.,12.0,0.,12.0
1979-08-01 12:23:23.590 ,3,1,0.,12.0,0.,12.0,0.,12.0,0.,12.0
1979-08-01 12:23:35.590 ,7,1,0.,12.0,0.,12.0,0.,12.0,0.,12.0
1979-08-01 12:23:47.590 ,7,1,0.,12.0,0.,12.0,0.,12.0,0.,12.0
1979-08-01 12:23:59.590 ,4,1,0.,12.0,0.,12.0,0.,12.0,0.,12.0
1979-08-01 12:24:11.590 ,4,1,0.,12.0,0.,12.0,0.,12.0,0.,12.0
1979-08-01 12:24:23.590 ,0,1,0.,12.0,0.,12.0,0.,12.0,0.,12.0
1979-08-01 12:24:35.590 ,0,1,0.,12.0,0.,12.0,0.,12.0,0.,12.0
1979-08-01 12:24:47.590 ,3,1,0.,12.0,0.,12.0,0.,12.0,0.,12.0
1979-08-01 12:24:59.590 ,3,1,0.,12.0,0.,12.0,0.,12.0,0.,12.0
1979-08-01 12:25:11.590 ,7,1,0.,12.0,0.,12.0,0.,12.0,0.,12.0
1979-08-01 12:25:23.590 ,7,1,0.,12.0,0.,12.0,0.,12.0,0.,12.0
1979-08-01 12:25:35.590 ,4,1,0.,12.0,0.,12.0,0.,12.0,0.,12.0
1979-08-01 12:25:47.590 ,4,1,0.,12.0,0.,12.0,0.,12.0,0.,12.0
1979-08-01 12:25:59.590 ,0,1,0.,12.0,0.,12.0,0.,12.0,0.,12.0
1979-08-01 12:26:11.590 ,0,1,0.,12.0,0.,12.0,0.,12.0,0.,12.0
1979-08-01 12:27:11.590 ,0,0,0.,12.0,0.,12.0,0.,12.0,0.,12.0
1979-08-01 12:27:23.590 ,0,0,0.,12.0,0.,12.0,0.,12.0,0.,12.0
1979-08-01 12:27:35.590 ,0,1,0.,12.0,0.,12.0,0.,12.0,0.,12.0
1979-08-01 12:27:47.590 ,0,1,0.,12.0,0.,12.0,0.,12.0,0.,12.0
1979-08-01 12:27:59.590 ,3,1,0.,12.0,0.,12.0,0.,12.0,0.,12.0
1979-08-01 12:28:11.590 ,3,1,0.,12.0,0.,12.0,0.,12.0,0.,12.0
1979-08-01 12:28:23.590 ,7,1,0.,12.0,0.,12.0,0.,12.0,0.,12.0
1979-08-01 12:28:35.590 ,7,1,0.,12.0,0.,12.0,0.,12.0,0.,12.0
1979-08-01 12:28:47.590 ,4,1,0.,12.0,0.,12.0,0.,12.0,0.,12.0
1979-08-01 12:28:59.590 ,4,1,0.,12.0,0.,12.0,0.,12.0,0.,12.0
1979-08-01 12:29:11.590 ,0,1,0.,12.0,0.,12.0,0.,12.0,0.,12.0
1979-08-01 12:29:23.590 ,0,1,0.,12.0,0.,12.0,0.,12.0,0.,12.0
1979-08-01 12:29:35.590 ,0,0,0.,12.0,0.,12.0,0.,12.0,0.,12.0
1979-08-01 12:29:47.590 ,0,0,0.,12.0,0.,12.0,0.,12.0,0.,12.0
1979-08-01 12:29:59.590 ,0,0,0.,12.0,0.,12.0,0.,12.0,0.,12.0
1979-08-01 12:30:11.590 ,0,0,0.,12.0,0.,12.0,0.,12.0,0.,12.0
1979-08-01 12:30:23.590 ,5,1,0.,12.0,0.,12.0,0.,12.0,0.,12.0
1979-08-01 12:30:35.590 ,5,1,0.,12.0,0.,12.0,0.,12.0,0.,12.0
1979-08-01 12:30:47.590 ,5,0,0.,12.0,0.,12.0,0.,12.0,0.,12.0
1979-08-01 12:30:59.590 ,5,0,0.,12.0,0.,12.0,0.,12.0,0.,12.0
1979-08-01 12:31:11.590 ,4,1,0.,12.0,0.,12.0,0.,12.0,0.,12.0
1979-08-01 12:31:23.590 ,4,1,0.,12.0,0.,12.0,0.,12.0,0.,12.0
1979-08-01 12:31:35.590 ,4,0,0.,12.0,0.,12.0,0.,12.0,0.,12.0
1979-08-01 12:31:47.590 ,4,0,,0,,0,,0,,0
1979-08-01 12:31:59.590 ,3,1,0.,12.0,0.,12.0,0.,12.0,0.,12.0
1979-08-01 12:32:11.590 ,3,1,0.,12.0,0.,12.0,0.,12.0,0.,12.0
1979-08-01 12:32:23.590 ,3,0,0.,12.0,0.,12.0,0.,12.0,0.,12.0
1979-08-01 12:32:35.590 ,3,0,0.,12.0,0.,12.0,0.,12.0,0.,12.0
1979-08-01 12:32:47.590 ,2,1,0.,12.0,0.,12.0,0.,12.0,0.,12.0
1979-08-01 12:32:59.590 ,2,1,0.,12.0,0.,12.0,0.,12.0,0.,12.0
1979-08-01 12:33:11.590 ,0,0,0.,12.0,0.,12.0,0.,12.0,0.,12.0
1979-08-01 12:33:23.590 ,0,0,0.,12.0,0.,12.0,0.,12.0,0.,12.0
1979-08-01 12:33:41.590 ,0,0,,0,,0,,0,,0
1979-08-01 12:33:53.590 ,0,0,0.,12.0,0.,12.0,0.,12.0,0.,12.0
1979-08-01 12:33:59.590 ,0,0,0.,12.0,0.,12.0,0.,12.0,0.,12.0
1979-08-01 12:34:11.590 ,0,0,0.,12.0,0.,12.0,0.,12.0,0.,12.0
1979-08-01 12:34:23.590 ,0,1,0.,12.0,0.,12.0,0.,12.0,0.,12.0
1979-08-01 12:34:35.590 ,0,1,0.,12.0,0.,12.0,0.,12.0,0.,12.0
1979-08-01 12:34:47.590 ,0,0,0.,12.0,0.,12.0,0.,12.0,0.,12.0
1979-08-01 12:34:59.590 ,0,0,0.,12.0,0.,12.0,0.,12.0,0.,12.0
1979-08-01 12:35:11.590 ,0,1,0.,12.0,0.,12.0,0.,12.0,0.,12.0
1979-08-01 12:35:23.590 ,0,1,0.,12.0,0.,12.0,0.,12.0,0.,12.0
1979-08-01 12:35:35.590 ,0,0,0.,12.0,0.,12.0,0.,12.0,0.,12.0
1979-08-01 12:35:47.590 ,0,0,0.,12.0,0.,12.0,0.,12.0,0.,12.0
1979-08-01 12:35:59.590 ,1,1,0.,12.0,0.,12.0,0.,12.0,0.,12.0
1979-08-01 12:36:11.590 ,1,1,0.,12.0,0.,12.0,0.,12.0,0.,12.0
1979-08-01 12:36:23.590 ,1,0,0.,12.0,0.,12.0,0.,12.0,0.,12.0
1979-08-01 12:36:35.590 ,1,0,0.,12.0,0.,12.0,0.,12.0,0.,12.0
1979-08-01 12:36:47.590 ,2,1,0.,12.0,0.,12.0,0.,12.0,0.,12.0
1979-08-01 12:36:59.590 ,2,1,0.,12.0,0.,12.0,0.,12.0,0.,12.0
1979-08-01 12:37:11.590 ,2,0,0.,12.0,0.,12.0,0.,12.0,0.,12.0
1979-08-01 12:37:23.590 ,2,0,0.,12.0,0.,12.0,0.,12.0,0.,12.0
1979-08-01 12:37:35.590 ,3,1,,0,,0,,0,,0
1979-08-01 12:37:47.590 ,3,1,0.,12.0,0.,12.0,0.,12.0,0.,12.0
1979-08-01 12:37:59.590 ,3,0,,0,,0,,0,,0
1979-08-01 12:38:11.590 ,3,0,0.,12.0,0.,12.0,0.,12.0,0.,12.0
1979-08-01 12:38:23.590 ,4,1,0.,12.0,0.,12.0,0.,12.0,0.,12.0
1979-08-01 12:38:35.590 ,4,1,0.,12.0,0.,12.0,0.,12.0,0.,12.0
1979-08-01 12:38:47.590 ,4,0,1.,12.0,2.,12.0,0.,12.0,0.,12.0
1979-08-01 12:38:59.590 ,4,0,1.,12.0,1.,12.0,1.,12.0,1.,12.0
1979-08-01 12:39:11.590 ,5,1,0.,12.0,0.,12.0,0.,12.0,0.,12.0
1979-08-01 12:39:23.590 ,5,1,0.,12.0,0.,12.0,0.,12.0,0.,12.0
1979-08-01 12:39:35.590 ,5,0,0.,12.0,0.,12.0,0.,12.0,0.,12.0
1979-08-01 12:39:47.590 ,5,0,0.,12.0,0.,12.0,0.,12.0,0.,12.0
1979-08-01 12:39:59.590 ,6,1,0.,12.0,0.,12.0,0.,12.0,0.,12.0
1979-08-01 12:40:11.590 ,6,1,0.,12.0,0.,12.0,0.,12.0,0.,12.0
1979-08-01 12:40:23.590 ,6,0,0.,12.0,0.,12.0,0.,12.0,0.,12.0
1979-08-01 12:40:35.590 ,6,0,,0,,0,,0,,0
1979-08-01 12:40:47.590 ,7,1,0.,12.0,0.,12.0,0.,12.0,0.,12.0
1979-08-01 12:40:59.590 ,7,1,0.,12.0,0.,12.0,0.,12.0,0.,12.0
1979-08-01 12:41:11.590 ,7,0,0.,12.0,0.,12.0,0.,12.0,0.,12.0
1979-08-01 12:41:23.590 ,7,0,0.,12.0,0.,12.0,0.,12.0,0.,12.0
1979-08-01 12:41:35.590 ,7,1,0.,12.0,0.,12.0,0.,12.0,0.,12.0
1979-08-01 12:41:47.590 ,7,1,0.,12.0,0.,12.0,0.,12.0,0.,12.0
1979-08-01 12:41:59.590 ,7,0,0.,12.0,0.,12.0,0.,12.0,0.,12.0
1979-08-01 12:42:11.590 ,7,0,0.,12.0,0.,12.0,0.,12.0,0.,12.0
1979-08-01 12:42:23.590 ,6,1,0.,12.0,0.,12.0,0.,12.0,0.,12.0
1979-08-01 12:42:35.590 ,6,1,0.,12.0,0.,12.0,0.,12.0,0.,12.0
1979-08-01 12:42:47.590 ,6,0,0.,12.0,0.,12.0,0.,12.0,0.,12.0
1979-08-01 12:42:59.590 ,6,0,0.,12.0,0.,12.0,0.,12.0,0.,12.0
1979-08-01 12:55:11.590 ,0,0,0.,12.0,0.,12.0,0.,12.0,0.,12.0
1979-08-01 12:55:23.590 ,0,0,0.,12.0,0.,12.0,0.,12.0,0.,12.0
1979-08-01 12:55:35.590 ,0,0,0.,12.0,0.,12.0,0.,12.0,0.,12.0
1979-08-01 12:55:47.590 ,0,0,0.,12.0,0.,12.0,0.,12.0,0.,12.0
1979-08-01 12:55:59.590 ,5,1,0.,12.0,0.,12.0,0.,12.0,0.,12.0
1979-08-01 12:56:11.590 ,5,1,0.,12.0,0.,12.0,0.,12.0,0.,12.0
1979-08-01 12:56:23.590 ,5,0,0.,12.0,0.,12.0,0.,12.0,0.,12.0
1979-08-01 12:56:35.590 ,5,0,0.,12.0,0.,12.0,0.,12.0,0.,12.0
1979-08-01 12:56:47.590 ,4,1,1.,12.0,0.,12.0,0.,12.0,0.,12.0
1979-08-01 12:56:59.590 ,4,1,0.,12.0,0.,12.0,0.,12.0,0.,12.0
1979-08-01 12:57:11.590 ,4,0,0.,12.0,0.,12.0,0.,12.0,0.,12.0
1979-08-01 12:57:23.590 ,4,0,0.,12.0,0.,12.0,0.,12.0,0.,12.0
1979-08-01 12:57:35.590 ,3,1,0.,12.0,0.,12.0,0.,12.0,0.,12.0
1979-08-01 12:57:47.590 ,3,1,0.,12.0,0.,12.0,0.,12.0,0.,12.0
1979-08-01 12:57:59.590 ,3,0,0.,12.0,0.,12.0,0.,12.0,0.,12.0
1979-08-01 12:58:11.590 ,3,0,0.,12.0,0.,12.0,0.,12.0,0.,12.0
1979-08-01 12:59:11.590 ,0,0,0.,12.0,0.,12.0,0.,12.0,0.,12.0
1979-08-01 12:59:23.590 ,0,0,0.,12.0,0.,12.0,0.,12.0,0.,12.0
1979-08-01 12:59:35.590 ,0,0,,0,,0,,0,,0
1979-08-01 12:59:47.590 ,0,0,0.,12.0,0.,12.0,0.,12.0,0.,12.0
1979-08-01 12:59:59.590 ,0,1,0.,12.0,0.,12.0,0.,12.0,0.,12.0
1979-08-01 13:00:11.590 ,0,1,0.,12.0,0.,12.0,0.,12.0,0.,12.0
1979-08-01 13:00:23.590 ,0,0,0.,12.0,0.,12.0,0.,12.0,0.,12.0
1979-08-01 13:00:35.590 ,0,0,0.,12.0,0.,12.0,0.,12.0,0.,12.0
1979-08-01 13:00:47.590 ,0,1,0.,12.0,0.,12.0,0.,12.0,0.,12.0
1979-08-01 13:00:59.590 ,0,1,0.,12.0,0.,12.0,0.,12.0,0.,12.0
1979-08-01 13:01:11.590 ,0,0,0.,12.0,0.,12.0,0.,12.0,0.,12.0
1979-08-01 13:01:23.590 ,0,0,0.,12.0,0.,12.0,0.,12.0,0.,12.0
1979-08-01 13:01:35.590 ,1,1,0.,12.0,0.,12.0,0.,12.0,0.,12.0
1979-08-01 13:01:47.590 ,1,1,0.,12.0,0.,12.0,0.,12.0,0.,12.0
1979-08-01 13:01:59.590 ,1,0,0.,12.0,0.,12.0,0.,12.0,0.,12.0
1979-08-01 13:02:11.590 ,1,0,0.,12.0,0.,12.0,0.,12.0,0.,12.0
1979-08-01 13:02:23.590 ,2,1,0.,12.0,0.,12.0,0.,12.0,0.,12.0
1979-08-01 13:02:35.590 ,2,1,0.,12.0,0.,12.0,0.,12.0,0.,12.0
1979-08-01 13:02:47.590 ,2,0,0.,12.0,0.,12.0,0.,12.0,0.,12.0
1979-08-01 13:02:59.590 ,2,0,0.,12.0,0.,12.0,0.,12.0,0.,12.0
1979-08-01 13:03:11.590 ,0,0,0.,12.0,0.,12.0,0.,12.0,0.,12.0
1979-08-01 13:03:23.590 ,0,0,0.,12.0,0.,12.0,0.,12.0,0.,12.0
1979-08-01 13:03:35.590 ,0,0,0.,12.0,0.,12.0,0.,12.0,0.,12.0
1979-08-01 13:03:47.590 ,0,0,0.,12.0,0.,12.0,0.,12.0,0.,12.0
1979-08-01 13:03:59.590 ,4,1,0.,12.0,0.,12.0,0.,12.0,0.,12.0
1979-08-01 13:04:11.590 ,4,1,0.,12.0,0.,12.0,0.,12.0,0.,12.0
1979-08-01 13:04:23.590 ,4,0,0.,12.0,0.,12.0,0.,12.0,0.,12.0
1979-08-01 13:04:35.590 ,4,0,0.,12.0,0.,12.0,0.,12.0,0.,12.0
1979-08-01 13:04:47.590 ,5,1,0.,12.0,0.,12.0,0.,12.0,0.,12.0
1979-08-01 13:04:59.590 ,5,1,0.,12.0,0.,12.0,0.,12.0,0.,12.0
1979-08-01 13:05:11.590 ,5,0,0.,12.0,0.,12.0,0.,12.0,0.,12.0
1979-08-01 13:05:23.590 ,5,0,0.,12.0,0.,12.0,0.,12.0,0.,12.0
1979-08-01 13:05:35.590 ,0,0,0.,12.0,0.,12.0,0.,12.0,0.,12.0
1979-08-01 13:05:47.590 ,0,0,0.,12.0,0.,12.0,0.,12.0,0.,12.0
1979-08-01 13:05:59.590 ,0,0,,0,,0,,0,,0
1979-08-01 13:06:11.590 ,0,0,,0,,0,,0,,0
1979-08-01 13:06:23.590 ,7,0,0.,12.0,0.,12.0,0.,12.0,0.,12.0
1979-08-01 13:06:35.590 ,7,0,0.,12.0,0.,12.0,0.,12.0,0.,12.0
1979-08-01 13:06:47.590 ,7,0,0.,12.0,0.,12.0,0.,12.0,0.,12.0
1979-08-01 13:06:59.590 ,7,0,0.,12.0,0.,12.0,0.,12.0,0.,12.0
1979-08-01 13:07:11.590 ,4,1,0.,12.0,0.,12.0,0.,12.0,0.,12.0
1979-08-01 13:07:23.590 ,4,1,0.,12.0,0.,12.0,0.,12.0,0.,12.0
1979-08-01 13:07:35.590 ,0,1,0.,12.0,0.,12.0,0.,12.0,0.,12.0
1979-08-01 13:07:47.590 ,0,1,0.,12.0,0.,12.0,0.,12.0,0.,12.0
1979-08-01 13:09:47.590 ,0,0,,0,,0,,0,,0
1979-08-01 13:09:59.590 ,0,0,0.,12.0,0.,12.0,0.,12.0,0.,12.0
1979-08-01 13:09:59.590 ,7,1,0.,12.0,0.,12.0,0.,12.0,0.,12.0
1979-08-01 13:10:11.590 ,7,1,0.,12.0,0.,12.0,0.,12.0,0.,12.0
1979-08-01 13:10:23.590 ,4,1,0.,12.0,0.,12.0,0.,12.0,0.,12.0
1979-08-01 13:10:35.590 ,4,1,0.,12.0,0.,12.0,0.,12.0,0.,12.0
1979-08-01 13:10:47.590 ,2,1,0.,12.0,0.,12.0,0.,12.0,0.,12.0
1979-08-01 13:10:59.590 ,2,1,,0,,0,,0,,0
1979-08-01 13:11:11.590 ,3,1,0.,12.0,0.,12.0,0.,12.0,0.,12.0
1979-08-01 13:11:23.590 ,3,1,0.,12.0,0.,12.0,0.,12.0,0.,12.0
1979-08-01 13:11:35.590 ,0,0,0.,12.0,0.,12.0,0.,12.0,0.,12.0
1979-08-01 13:11:47.590 ,0,0,0.,12.0,0.,12.0,0.,12.0,0.,12.0
1979-08-01 13:12:00.790 ,4,1,0.,12.0,0.,12.0,0.,12.0,0.,12.0
1979-08-01 13:12:12.790 ,4,1,0.,12.0,0.,12.0,0.,12.0,0.,12.0
1979-08-01 13:12:23.590 ,0,1,0.,12.0,0.,12.0,0.,12.0,0.,12.0
1979-08-01 13:12:35.590 ,0,1,0.,12.0,0.,12.0,0.,12.0,0.,12.0
1979-08-01 13:12:47.590 ,3,1,0.,12.0,0.,12.0,0.,12.0,0.,12.0
1979-08-01 13:12:59.590 ,3,1,0.,12.0,0.,12.0,0.,12.0,0.,12.0
1979-08-01 13:13:11.590 ,7,1,0.,12.0,0.,12.0,0.,12.0,0.,12.0
1979-08-01 13:13:23.590 ,7,1,0.,12.0,0.,12.0,0.,12.0,0.,12.0
1979-08-01 13:13:35.590 ,6,1,0.,12.0,0.,12.0,0.,12.0,0.,12.0
1979-08-01 13:13:47.590 ,6,1,,0,,0,,0,,0
1979-08-01 13:13:59.590 ,0,1,0.,12.0,0.,12.0,0.,12.0,0.,12.0
1979-08-01 13:14:11.590 ,0,1,0.,12.0,0.,12.0,0.,12.0,0.,12.0
1979-08-01 13:14:23.590 ,3,1,0.,12.0,0.,12.0,0.,12.0,0.,12.0
1979-08-01 13:14:35.590 ,3,1,0.,12.0,0.,12.0,0.,12.0,0.,12.0
1979-08-01 13:14:47.590 ,7,1,0.,12.0,0.,12.0,0.,12.0,0.,12.0
1979-08-01 13:14:59.590 ,7,1,0.,12.0,0.,12.0,0.,12.0,0.,12.0
1979-08-01 13:15:11.590 ,4,1,0.,12.0,0.,12.0,0.,12.0,0.,12.0
1979-08-01 13:15:23.590 ,4,1,0.,12.0,0.,12.0,0.,12.0,0.,12.0
1979-08-01 13:15:35.590 ,0,1,0.,12.0,0.,12.0,0.,12.0,0.,12.0
1979-08-01 13:15:47.590 ,0,1,0.,12.0,0.,12.0,0.,12.0,0.,12.0
1979-08-01 13:15:59.590 ,3,1,0.,12.0,0.,12.0,0.,12.0,0.,12.0
1979-08-01 13:16:11.590 ,3,1,0.,12.0,0.,12.0,0.,12.0,0.,12.0
1979-08-01 13:16:23.590 ,7,1,0.,12.0,0.,12.0,0.,12.0,0.,12.0
1979-08-01 13:16:35.590 ,7,1,0.,12.0,0.,12.0,0.,12.0,0.,12.0
1979-08-01 13:16:47.590 ,4,1,0.,12.0,0.,12.0,0.,12.0,0.,12.0
1979-08-01 13:16:59.590 ,4,1,0.,12.0,0.,12.0,0.,12.0,0.,12.0
1979-08-01 13:17:11.590 ,0,1,0.,12.0,0.,12.0,0.,12.0,0.,12.0
1979-08-01 13:17:23.590 ,0,1,0.,12.0,0.,12.0,0.,12.0,0.,12.0
1979-08-01 13:17:35.590 ,0,0,0.,12.0,0.,12.0,0.,12.0,0.,12.0
1979-08-01 13:17:47.590 ,0,0,0.,12.0,0.,12.0,0.,12.0,0.,12.0
1979-08-01 13:17:59.590 ,0,0,0.,12.0,0.,12.0,0.,12.0,0.,12.0
1979-08-01 13:18:11.590 ,0,0,0.,12.0,0.,12.0,0.,12.0,0.,12.0
1979-08-01 13:18:23.590 ,5,1,0.,12.0,0.,12.0,0.,12.0,0.,12.0
1979-08-01 13:18:35.590 ,5,1,0.,12.0,0.,12.0,0.,12.0,0.,12.0
1979-08-01 13:18:47.590 ,5,0,0.,12.0,0.,12.0,0.,12.0,0.,12.0
1979-08-01 13:18:59.590 ,5,0,0.,12.0,0.,12.0,0.,12.0,0.,12.0
1979-08-01 13:19:11.590 ,4,1,0.,12.0,0.,12.0,0.,12.0,0.,12.0
1979-08-01 13:19:23.590 ,4,1,0.,12.0,0.,12.0,0.,12.0,0.,12.0
1979-08-01 13:19:35.590 ,4,0,0.,12.0,0.,12.0,0.,12.0,0.,12.0
1979-08-01 13:19:47.590 ,4,0,0.,12.0,0.,12.0,0.,12.0,0.,12.0
1979-08-01 13:19:59.590 ,3,1,0.,12.0,0.,12.0,0.,12.0,0.,12.0
1979-08-01 13:20:11.590 ,3,1,0.,12.0,0.,12.0,0.,12.0,0.,12.0
1979-08-01 13:20:23.590 ,3,0,0.,12.0,0.,12.0,0.,12.0,0.,12.0
1979-08-01 13:20:35.590 ,3,0,0.,12.0,0.,12.0,0.,12.0,0.,12.0
1979-08-01 13:20:47.590 ,2,1,0.,12.0,0.,12.0,0.,12.0,0.,12.0
1979-08-01 13:20:59.590 ,2,1,0.,12.0,0.,12.0,0.,12.0,0.,12.0
1979-08-01 13:21:11.590 ,2,0,0.,12.0,0.,12.0,0.,12.0,0.,12.0
1979-08-01 13:21:23.590 ,2,0,0.,12.0,0.,12.0,0.,12.0,0.,12.0
1979-08-01 13:21:35.590 ,1,1,0.,12.0,0.,12.0,0.,12.0,0.,12.0
1979-08-01 13:21:47.590 ,1,1,0.,12.0,0.,12.0,0.,12.0,0.,12.0
1979-08-01 13:21:59.590 ,1,0,0.,12.0,0.,12.0,0.,12.0,0.,12.0
1979-08-01 13:22:11.590 ,1,0,0.,12.0,0.,12.0,0.,12.0,0.,12.0
1979-08-01 13:22:23.590 ,0,1,0.,12.0,0.,12.0,0.,12.0,0.,12.0
1979-08-01 13:22:35.590 ,0,1,0.,12.0,0.,12.0,0.,12.0,0.,12.0
1979-08-01 13:22:47.590 ,0,0,0.,12.0,0.,12.0,0.,12.0,0.,12.0
1979-08-01 13:22:59.590 ,0,0,0.,12.0,0.,12.0,0.,12.0,0.,12.0
1979-08-01 13:23:59.590 ,0,0,0.,12.0,0.,12.0,0.,12.0,0.,12.0
1979-08-01 13:24:11.590 ,0,0,0.,12.0,0.,12.0,0.,12.0,0.,12.0
1979-08-01 13:24:23.590 ,0,0,0.,12.0,0.,12.0,0.,12.0,0.,12.0
1979-08-01 13:24:35.590 ,0,0,0.,12.0,0.,12.0,0.,12.0,0.,12.0
1979-08-01 13:24:47.590 ,2,1,0.,12.0,0.,12.0,0.,12.0,0.,12.0
1979-08-01 13:24:59.590 ,2,1,0.,12.0,0.,12.0,0.,12.0,0.,12.0
1979-08-01 13:25:11.590 ,2,0,0.,12.0,0.,12.0,0.,12.0,0.,12.0
1979-08-01 13:25:23.590 ,2,0,0.,12.0,0.,12.0,0.,12.0,0.,12.0
1979-08-01 13:25:35.590 ,3,1,0.,12.0,0.,12.0,0.,12.0,0.,12.0
1979-08-01 13:25:47.590 ,3,1,0.,12.0,0.,12.0,0.,12.0,0.,12.0
1979-08-01 13:25:59.590 ,3,0,0.,12.0,0.,12.0,0.,12.0,0.,12.0
1979-08-01 13:26:11.590 ,3,0,0.,12.0,0.,12.0,0.,12.0,0.,12.0
1979-08-01 13:26:23.590 ,4,1,0.,12.0,0.,12.0,0.,12.0,0.,12.0
1979-08-01 13:26:35.590 ,4,1,0.,12.0,0.,12.0,0.,12.0,0.,12.0
1979-08-01 13:26:47.590 ,4,0,0.,12.0,0.,12.0,0.,12.0,0.,12.0
1979-08-01 13:26:59.590 ,4,0,0.,12.0,0.,12.0,0.,12.0,0.,12.0
1979-08-01 13:27:11.580 ,5,1,0.,12.0,0.,12.0,0.,12.0,0.,12.0
1979-08-01 13:27:23.580 ,5,1,0.,12.0,0.,12.0,0.,12.0,0.,12.0
1979-08-01 13:27:35.580 ,5,0,0.,12.0,0.,12.0,0.,12.0,0.,12.0
1979-08-01 13:27:47.580 ,5,0,0.,12.0,0.,12.0,0.,12.0,0.,12.0
1979-08-01 13:27:59.580 ,6,1,0.,12.0,0.,12.0,0.,12.0,0.,12.0
1979-08-01 13:28:11.580 ,6,1,0.,12.0,0.,12.0,0.,12.0,0.,12.0
1979-08-01 13:28:23.580 ,6,0,0.,12.0,0.,12.0,0.,12.0,0.,12.0
1979-08-01 13:28:35.580 ,6,0,0.,12.0,0.,12.0,0.,12.0,0.,12.0
1979-08-01 13:28:47.580 ,7,1,0.,12.0,0.,12.0,0.,12.0,0.,12.0
1979-08-01 13:28:59.580 ,7,1,0.,12.0,0.,12.0,0.,12.0,0.,12.0
1979-08-01 13:29:11.580 ,7,0,0.,12.0,0.,12.0,0.,12.0,0.,12.0
1979-08-01 13:29:23.580 ,7,0,0.,12.0,0.,12.0,0.,12.0,0.,12.0
1979-08-01 13:29:35.580 ,7,1,0.,12.0,0.,12.0,0.,12.0,0.,12.0
1979-08-01 13:29:47.580 ,7,1,0.,12.0,0.,12.0,0.,12.0,0.,12.0
1979-08-01 13:29:59.580 ,7,0,0.,12.0,0.,12.0,0.,12.0,0.,12.0
1979-08-01 13:30:11.580 ,7,0,0.,12.0,0.,12.0,0.,12.0,0.,12.0
1979-08-01 13:30:23.580 ,6,1,0.,12.0,0.,12.0,0.,12.0,0.,12.0
1979-08-01 13:30:35.580 ,6,1,0.,12.0,0.,12.0,0.,12.0,0.,12.0
1979-08-01 13:30:47.580 ,6,0,0.,12.0,0.,12.0,0.,12.0,0.,12.0
1979-08-01 13:30:59.580 ,6,0,0.,12.0,0.,12.0,0.,12.0,0.,12.0
1979-08-01 13:31:11.580 ,5,1,0.,12.0,0.,12.0,0.,12.0,0.,12.0
1979-08-01 13:31:23.580 ,5,1,0.,12.0,0.,12.0,0.,12.0,0.,12.0
1979-08-01 13:31:35.580 ,5,0,0.,12.0,0.,12.0,0.,12.0,0.,12.0
1979-08-01 13:31:47.580 ,5,0,0.,12.0,0.,12.0,0.,12.0,0.,12.0
1979-08-01 13:31:59.580 ,4,1,0.,12.0,0.,12.0,0.,12.0,0.,12.0
1979-08-01 13:32:11.580 ,4,1,0.,12.0,0.,12.0,0.,12.0,0.,12.0
1979-08-01 13:32:23.580 ,4,0,0.,12.0,0.,12.0,0.,12.0,0.,12.0
1979-08-01 13:32:35.580 ,4,0,0.,12.0,0.,12.0,0.,12.0,0.,12.0
1979-08-01 13:32:47.580 ,3,1,0.,12.0,0.,12.0,0.,12.0,0.,12.0
1979-08-01 13:32:59.580 ,3,1,0.,12.0,0.,12.0,0.,12.0,0.,12.0
1979-08-01 13:33:11.580 ,3,0,0.,12.0,0.,12.0,0.,12.0,0.,12.0
1979-08-01 13:33:23.580 ,3,0,0.,12.0,0.,12.0,0.,12.0,0.,12.0
1979-08-01 13:33:35.580 ,2,1,0.,12.0,0.,12.0,0.,12.0,0.,12.0
1979-08-01 13:33:47.580 ,2,1,0.,12.0,0.,12.0,0.,12.0,0.,12.0
1979-08-01 13:33:59.580 ,2,0,0.,12.0,0.,12.0,0.,12.0,0.,12.0
1979-08-01 13:34:11.580 ,2,0,0.,12.0,0.,12.0,0.,12.0,0.,12.0
1979-08-01 13:34:23.580 ,1,1,1.,12.0,0.,12.0,0.,12.0,0.,12.0
1979-08-01 13:34:35.580 ,1,1,0.,12.0,0.,12.0,0.,12.0,0.,12.0
1979-08-01 13:34:47.580 ,1,0,0.,12.0,0.,12.0,0.,12.0,0.,12.0
1979-08-01 13:34:59.580 ,1,0,0.,12.0,0.,12.0,0.,12.0,0.,12.0
1979-08-01 13:35:11.580 ,0,1,0.,12.0,0.,12.0,0.,12.0,0.,12.0
1979-08-01 13:35:23.580 ,0,1,0.,12.0,0.,12.0,0.,12.0,0.,12.0
1979-08-01 13:35:35.580 ,0,0,0.,12.0,0.,12.0,0.,12.0,0.,12.0
1979-08-01 13:35:47.580 ,0,0,0.,12.0,0.,12.0,0.,12.0,0.,12.0